Rutland, VT

10:24 AM EDT on March 28, 2017 (GMT -0400)
Rutland State

Weather History for KRUT - May, 2013

Change the Weather History Date:

Saturday, May 18, 2013

  Actual Average Record
Temperature  
Mean Temperature 54 °F -  
Max Temperature 70 °F - 91 °F (1962)
Min Temperature 37 °F - 28 °F (1983)
Degree Days  
Heating Degree Days 11    
Month to date heating degree days 168  
Since 1 July heating degree days 6728  
Cooling Degree Days 0    
Month to date cooling degree days 0  
Year to date cooling degree days 0  
Growing Degree Days 3 (Base 50)    
Moisture  
Dew Point 35 °F    
Average Humidity 54    
Maximum Humidity 85    
Minimum Humidity 23    
Precipitation  
Precipitation 0.00 in - 1.13 in (2002)
Month to date precipitation 0.33  
Year to date precipitation 4.84  
Sea Level Pressure  
Sea Level Pressure 30.26 in    
Wind  
Wind Speed 6 mph (ESE)    
Max Wind Speed 13 mph    
Max Gust Speed -    
Visibility 10 miles    
Events      
T = Trace of Precipitation, MM = Missing Value Source: NWS Daily Summary

Daily Weather History Graph

Daily Weather History Graph

Search for Another Location

Airport or City:

Trip Planner

Search our weather history database for the weather conditions in past years. The results will help you decide how hot, cold, wet, or windy it might be!

Date:

Astronomy

May. 18, 2013 Rise Set
Actual Time 5:23 AM EDT 8:13 PM EDT
Civil Twilight 4:50 AM EDT 8:46 PM EDT
Nautical Twilight 4:08 AM EDT 9:29 PM EDT
Astronomical Twilight 3:19 AM EDT 10:18 PM EDT
Moon 1:01 PM EDT (5/18) 1:27 AM EDT (5/18)
Length of Visible Light 15h 56m
Length of Day
14h 49m
First Quarter, 55% of the Moon is Illuminated
May 18
First Quarter
May 25
Full
May 31
Last Quarter
Jun 8
New
Jun 16
First Quarter

Hourly Weather History & Observations

Time (EDT) Temp. Windchill Dew Point Humidity Pressure Visibility Wind Dir Wind Speed Gust Speed Precip Events Conditions
12:15 AM 44.6 °F 38.8 °F 35.6 °F 71% 30.24 in 10.0 mi SE 11.5 mph - N/A   Clear
12:35 AM 44.6 °F 39.2 °F 35.6 °F 71% 30.24 in 10.0 mi ESE 10.4 mph - N/A   Clear
12:55 AM 44.6 °F 38.8 °F 35.6 °F 71% 30.24 in 10.0 mi SE 11.5 mph - N/A   Clear
1:15 AM 42.8 °F 38.0 °F 35.6 °F 76% 30.24 in 10.0 mi SE 8.1 mph - N/A   Clear
1:35 AM 42.8 °F 38.0 °F 35.6 °F 76% 30.24 in 10.0 mi SE 8.1 mph - N/A   Clear
1:55 AM 42.8 °F 37.5 °F 35.6 °F 76% 30.24 in 10.0 mi ESE 9.2 mph - N/A   Clear
2:15 AM 41.0 °F 35.2 °F 35.6 °F 81% 30.24 in 10.0 mi ESE 9.2 mph - N/A   Clear
2:35 AM 39.2 °F 32.5 °F 35.6 °F 87% 30.24 in 10.0 mi SE 10.4 mph - N/A   Clear
2:55 AM 41.0 °F 34.7 °F 35.6 °F 81% 30.24 in 10.0 mi SE 10.4 mph - N/A   Clear
3:15 AM 39.2 °F 35.0 °F 35.6 °F 87% 30.25 in 10.0 mi SSE 5.8 mph - N/A   Clear
3:35 AM 39.2 °F 33.6 °F 33.8 °F 81% 30.25 in 10.0 mi SE 8.1 mph - N/A   Clear
3:55 AM 41.0 °F 33.9 °F 35.6 °F 81% 30.25 in 10.0 mi ESE 12.7 mph - N/A   Clear
4:15 AM 39.2 °F 35.9 °F 33.8 °F 81% 30.26 in 10.0 mi SE 4.6 mph - N/A   Clear
4:35 AM 39.2 °F 33.0 °F 33.8 °F 81% 30.26 in 10.0 mi SE 9.2 mph - N/A   Clear
4:55 AM 37.4 °F 32.8 °F 33.8 °F 87% 30.26 in 10.0 mi SE 5.8 mph - N/A   Clear
5:15 AM 37.4 °F 31.4 °F 33.8 °F 87% 30.27 in 10.0 mi SE 8.1 mph - N/A   Clear
5:35 AM 37.4 °F 32.1 °F 33.8 °F 87% 30.27 in 10.0 mi SE 6.9 mph - N/A   Clear
5:55 AM 39.2 °F 33.6 °F 33.8 °F 81% 30.28 in 10.0 mi SE 8.1 mph - N/A   Clear
6:15 AM 37.4 °F 30.8 °F 33.8 °F 87% 30.29 in 10.0 mi SE 9.2 mph - N/A   Clear
6:35 AM 39.2 °F 34.2 °F 35.6 °F 87% 30.29 in 10.0 mi SE 6.9 mph - N/A   Clear
6:55 AM 41.0 °F 37.1 °F 35.6 °F 81% 30.30 in 10.0 mi SE 5.8 mph - N/A   Clear
7:15 AM 42.8 °F 39.3 °F 35.6 °F 76% 30.30 in 10.0 mi ESE 5.8 mph - N/A   Partly Cloudy
7:35 AM 44.6 °F 43.1 °F 35.6 °F 71% 30.31 in 10.0 mi East 3.5 mph - N/A   Partly Cloudy
7:55 AM 46.4 °F - 37.4 °F 71% 30.31 in 10.0 mi Calm Calm - N/A   Clear
8:15 AM 48.2 °F - 39.2 °F 71% 30.31 in 10.0 mi Calm Calm - N/A   Clear
8:35 AM 51.8 °F - 39.2 °F 62% 30.31 in 10.0 mi Calm Calm - N/A   Clear
8:55 AM 53.6 °F - 39.2 °F 58% 30.31 in 10.0 mi Calm Calm - N/A   Clear
9:15 AM 55.4 °F - 39.2 °F 54% 30.31 in 10.0 mi Calm Calm - N/A   Clear
9:35 AM 59.0 °F - 39.2 °F 48% 30.31 in 10.0 mi Calm Calm - N/A   Clear
9:55 AM 60.8 °F - 41.0 °F 48% 30.30 in 10.0 mi Calm Calm - N/A   Clear
10:15 AM 60.8 °F - 37.4 °F 42% 30.30 in 10.0 mi NE 3.5 mph - N/A   Clear
10:35 AM 62.6 °F - 37.4 °F 39% 30.30 in 10.0 mi NE 5.8 mph - N/A   Clear
10:55 AM 62.6 °F - 37.4 °F 39% 30.30 in 10.0 mi NNE 3.5 mph - N/A   Clear
11:15 AM 64.4 °F - 33.8 °F 32% 30.29 in 10.0 mi NNW 5.8 mph - N/A   Clear
11:35 AM 64.4 °F - 30.2 °F 28% 30.29 in 10.0 mi ENE 5.8 mph - N/A   Scattered Clouds
11:55 AM 64.4 °F - 28.4 °F 26% 30.28 in 10.0 mi Calm Calm - N/A   Scattered Clouds
12:15 PM 64.4 °F - 32.0 °F 30% 30.28 in 10.0 mi WSW 5.8 mph - N/A   Mostly Cloudy
12:35 PM 64.4 °F - 32.0 °F 30% 30.27 in 10.0 mi Calm Calm - N/A   Mostly Cloudy
12:55 PM 66.2 °F - 35.6 °F 32% 30.27 in 10.0 mi WNW 5.8 mph - N/A   Scattered Clouds
1:15 PM 66.2 °F - 33.8 °F 30% 30.26 in 10.0 mi North 5.8 mph - N/A   Partly Cloudy
1:35 PM 66.2 °F - 33.8 °F 30% 30.26 in 10.0 mi NNW 8.1 mph - N/A   Mostly Cloudy
1:55 PM 66.2 °F - 33.8 °F 30% 30.25 in 10.0 mi NE 6.9 mph - N/A   Partly Cloudy
2:15 PM 68.0 °F - 32.0 °F 26% 30.25 in 10.0 mi North 3.5 mph - N/A   Clear
2:35 PM 66.2 °F - 32.0 °F 28% 30.24 in 10.0 mi SSW 3.5 mph - N/A   Clear
3:15 PM 68.0 °F - 30.2 °F 24% 30.23 in 10.0 mi Calm Calm - N/A   Clear
3:35 PM 69.8 °F - 30.2 °F 23% 30.23 in 10.0 mi Calm Calm - N/A   Clear
3:55 PM 69.8 °F - 33.8 °F 27% 30.22 in 10.0 mi WNW 4.6 mph - N/A   Clear
4:15 PM 69.8 °F - 30.2 °F 23% 30.22 in 10.0 mi Calm Calm - N/A   Clear
4:35 PM 69.8 °F - 30.2 °F 23% 30.22 in 10.0 mi NNW 3.5 mph - N/A   Clear
4:55 PM 69.8 °F - 33.8 °F 27% 30.22 in 10.0 mi North 9.2 mph - N/A   Clear
5:15 PM 69.8 °F - 30.2 °F 23% 30.22 in 10.0 mi Calm Calm - N/A   Clear
5:35 PM 69.8 °F - 30.2 °F 23% 30.21 in 10.0 mi West 5.8 mph - N/A   Clear
6:15 PM 68.0 °F - 30.2 °F 24% 30.22 in 10.0 mi Calm Calm - N/A   Clear
6:35 PM 68.0 °F - 33.8 °F 28% 30.22 in 10.0 mi SW 5.8 mph - N/A   Clear
6:55 PM 66.2 °F - 35.6 °F 32% 30.22 in 10.0 mi SSW 3.5 mph - N/A   Clear
7:15 PM 66.2 °F - 35.6 °F 32% 30.22 in 10.0 mi Calm Calm - N/A   Clear
7:35 PM 64.4 °F - 37.4 °F 37% 30.22 in 10.0 mi Calm Calm - N/A   Clear
7:55 PM 60.8 °F - 42.8 °F 52% 30.22 in 10.0 mi SE 4.6 mph - N/A   Clear
8:15 PM 57.2 °F - 41.0 °F 55% 30.22 in 10.0 mi SE 4.6 mph - N/A   Clear
8:35 PM 57.2 °F - 39.2 °F 51% 30.23 in 10.0 mi SE 6.9 mph - N/A   Clear
8:55 PM 57.2 °F - 39.2 °F 51% 30.23 in 10.0 mi SE 8.1 mph - N/A   Clear
9:15 PM 55.4 °F - 39.2 °F 54% 30.23 in 10.0 mi SE 6.9 mph - N/A   Clear
9:35 PM 55.4 °F - 39.2 °F 54% 30.24 in 10.0 mi SE 9.2 mph - N/A   Scattered Clouds
9:55 PM 55.4 °F - 39.2 °F 54% 30.25 in 10.0 mi SE 8.1 mph - N/A   Mostly Cloudy
10:15 PM 53.6 °F - 39.2 °F 58% 30.25 in 10.0 mi SE 5.8 mph - N/A   Mostly Cloudy
10:35 PM 51.8 °F - 39.2 °F 62% 30.25 in 10.0 mi SSE 4.6 mph - N/A   Clear
10:55 PM 51.8 °F - 39.2 °F 62% 30.25 in 10.0 mi ESE 8.1 mph - N/A   Clear
11:15 PM 48.2 °F - 39.2 °F 71% 30.25 in 10.0 mi SE 8.1 mph - N/A   Clear
11:35 PM 50.0 °F - 39.2 °F 66% 30.26 in 10.0 mi ESE 6.9 mph - N/A   Clear